User: anonymous   Login
Location: Dillon
(41.1766°N, 107.0923°W)
Time: 11:00:07
(UTC+00:00)
Language:

COSMOS 1867 COOLANT - Orbit

View from above orbital plane
View from above orbital plane
View from above satellite
View from above satellite

Ground track
Ground track

The orbit data is extracted from the following two-line orbital elements,

1 39637U 87060E   22332.22141018  .00000191  00000-0  10765-3 0  9993
2 39637  65.0121  48.3088 0013582 263.5766  96.3772 14.32272120451828
Epoch (UTC): 28 November 2022 05:18:49
Eccentricity: 0.0013582
inclination: 65.0121°
perigee height: 774 km
apogee height: 794 km
right ascension of ascending node: 48.3088°
argument of perigee: 263.5766°
revolutions per day: 14.32272120
mean anomaly at epoch: 96.3772°
orbit number at epoch: 45182

The dashed part of the orbit path shows where the satellite is in the earth's shadow,  

DLR